Station Historical Data
Daily Summary for September 3, 2017 Units:  Metric    English   Both
« Previous Day
Next Day »
Daily Weekly Monthly Yearly Custom
  High: Low: Average:
Temperature: 20.4 °C 13.4 °C 16.7 °C
Dew Point: 15.6 °C 11.4 °C 13.1 °C
Humidity: 93% 62% 80%
Wind Speed: 29km/h 0km/h 5.8km/h
Wind Gust: 37km/h - -
Wind- - WSW
Pressure: 1014.4 hPa 1009 hPa -
Precipitation: 0 mm    
Historical Graphs
 
 
Tabular Data for September 3, 2017
Time Temperature Dew Point Pressure Wind Wind Speed Wind Gust Humidity Rainfall Rate (Hourly)
00:04 14.2 °C 11.5 °C 1014.4 hPa Calm   4.8 km/h 84% 0.25 mm
00:09 14.1 °C 11.4 °C 1014.4 hPa Calm   3.2 km/h 84% 0.51 mm
00:14 14.1 °C 11.6 °C 1014.1 hPa Calm     85% 0.51 mm
00:19 14 °C 11.7 °C 1014.1 hPa Calm   1.6 km/h 86% 0.51 mm
00:24 14 °C 11.7 °C 1014.1 hPa Calm   3.2 km/h 86% 0.51 mm
00:29 14.1 °C 11.7 °C 1014.1 hPa Calm   3.2 km/h 86% 0.51 mm
00:34 14 °C 11.9 °C 1013.8 hPa Calm   3.2 km/h 87% 0.51 mm
00:39 14.1 °C 11.9 °C 1013.8 hPa Calm   3.2 km/h 87% 0.51 mm
00:44 14 °C 11.9 °C 1013.8 hPa SE 3.2 km/h 4.8 km/h 87% 0.51 mm
00:49 14 °C 11.9 °C 1013.8 hPa Calm   4.8 km/h 87% 0.51 mm
00:54 13.9 °C 11.8 °C 1013.4 hPa Calm   4.8 km/h 87% 0.51 mm
00:59 13.9 °C 11.9 °C 1013.4 hPa Calm   6.4 km/h 88% 0.51 mm
01:05 13.9 °C 11.9 °C 1013.4 hPa SE 1.6 km/h 6.4 km/h 88% 0.51 mm
01:10 13.9 °C 11.9 °C 1013.4 hPa South 1.6 km/h 6.4 km/h 88% 0.25 mm
01:15 13.8 °C 11.9 °C 1013.4 hPa Calm   4.8 km/h 88% 0.25 mm
01:20 13.8 °C 11.8 °C 1013.1 hPa Calm   4.8 km/h 88% 0.51 mm
01:25 13.8 °C 11.8 °C 1013.1 hPa Calm   3.2 km/h 88% 0.51 mm
01:30 13.7 °C 11.8 °C 1013.1 hPa Calm     88% 0.51 mm
01:35 13.8 °C 12 °C 1013.1 hPa Calm     89% 0.51 mm
01:40 13.7 °C 11.9 °C 1013.1 hPa Calm     89% 0.25 mm
01:45 13.7 °C 11.9 °C 1013.1 hPa Calm     89% 0.25 mm
01:50 13.7 °C 11.9 °C 1012.8 hPa Calm     89% 0.25 mm
01:55 13.7 °C 11.9 °C 1012.8 hPa Calm     89% 0.25 mm
02:00 13.7 °C 11.9 °C 1012.8 hPa Calm     89% 0.25 mm
02:05 13.7 °C 11.9 °C 1012.8 hPa Calm     89% 0.25 mm
02:10 13.7 °C 12.1 °C 1012.4 hPa Calm   8 km/h 90% 0.25 mm
02:15 13.7 °C 11.9 °C 1012.4 hPa Calm   8 km/h 89% 0.25 mm
02:20 13.7 °C 11.9 °C 1012.4 hPa Calm   4.8 km/h 89% 0 mm
02:25 13.6 °C 11.8 °C 1012.4 hPa South 4.8 km/h 6.4 km/h 89% 0 mm
02:30 13.6 °C 12 °C 1012.4 hPa South 4.8 km/h 9.7 km/h 90% 0 mm
02:35 13.6 °C 11.9 °C 1012.1 hPa Calm   8 km/h 90% 0 mm
02:40 13.6 °C 11.9 °C 1012.1 hPa South 1.6 km/h 8 km/h 90% 0 mm
02:45 13.6 °C 11.9 °C 1012.1 hPa Calm   4.8 km/h 90% 0 mm
02:50 13.5 °C 11.9 °C 1011.7 hPa South 1.6 km/h 9.7 km/h 90% 0 mm
02:55 13.5 °C 11.9 °C 1011.7 hPa South 1.6 km/h 9.7 km/h 90% 0 mm
03:00 13.5 °C 11.9 °C 1011.7 hPa Calm   4.8 km/h 90% 0 mm
03:05 13.4 °C 11.8 °C 1011.7 hPa Calm   6.4 km/h 90% 0 mm
03:10 13.4 °C 11.8 °C 1011.7 hPa Calm   6.4 km/h 90% 0 mm
03:15 13.4 °C 11.8 °C 1011.7 hPa Calm   3.2 km/h 90% 0.25 mm
03:20 13.4 °C 12 °C 1011.4 hPa Calm   1.6 km/h 91% 0.25 mm
03:25 13.4 °C 11.8 °C 1011.4 hPa Calm     90% 0.25 mm
03:30 13.4 °C 11.8 °C 1011.4 hPa Calm     90% 0.25 mm
03:35 13.5 °C 12.1 °C 1011.4 hPa Calm     91% 0.25 mm
03:40 13.4 °C 12 °C 1011.4 hPa Calm     91% 0.25 mm
03:45 13.5 °C 12.1 °C 1011.4 hPa Calm     91% 0.25 mm
03:50 13.5 °C 12.1 °C 1011.4 hPa Calm   4.8 km/h 91% 0.25 mm
03:55 13.5 °C 12.1 °C 1011.1 hPa Calm     91% 0.51 mm
04:00 13.5 °C 12.1 °C 1011.1 hPa Calm     91% 0.51 mm
04:05 13.4 °C 12 °C 1011.1 hPa Calm     91% 0.51 mm
04:10 13.4 °C 12 °C 1011.1 hPa Calm   4.8 km/h 91% 0.51 mm
04:15 13.5 °C 12.1 °C 1011.1 hPa Calm   4.8 km/h 91% 0.25 mm
04:20 13.5 °C 12.1 °C 1011.1 hPa Calm   3.2 km/h 91% 0.51 mm
04:25 13.5 °C 12.1 °C 1011.1 hPa Calm   4.8 km/h 91% 0.51 mm
04:30 13.4 °C 12 °C 1011.1 hPa South 1.6 km/h 6.4 km/h 91% 0.51 mm
04:35 13.5 °C 12.1 °C 1010.7 hPa South 1.6 km/h 6.4 km/h 91% 0.76 mm
04:40 13.5 °C 12.1 °C 1010.7 hPa South 1.6 km/h 4.8 km/h 91% 0.76 mm
04:44 13.5 °C 12.1 °C 1010.7 hPa South 1.6 km/h 4.8 km/h 91% 0.76 mm
04:50 13.5 °C 12.1 °C 1010.7 hPa Calm   3.2 km/h 91% 0.76 mm
04:55 13.5 °C 12.1 °C 1010.7 hPa Calm   3.2 km/h 91% 0.51 mm
05:00 13.5 °C 12.1 °C 1010.4 hPa Calm   4.8 km/h 91% 0.51 mm
05:05 13.5 °C 12.1 °C 1010.4 hPa Calm   3.2 km/h 91% 0.51 mm
05:10 13.6 °C 12.1 °C 1010.4 hPa Calm   3.2 km/h 91% 0.51 mm
05:14 13.6 °C 12.3 °C 1010.4 hPa Calm   3.2 km/h 92% 0.76 mm
05:20 13.6 °C 12.3 °C 1010.4 hPa Calm   3.2 km/h 92% 0.51 mm
05:25 13.6 °C 12.1 °C 1010.4 hPa Calm   3.2 km/h 91% 0.51 mm
05:30 13.6 °C 12.2 °C 1010 hPa Calm   3.2 km/h 91% 0.51 mm
05:35 13.6 °C 12.3 °C 1010 hPa Calm     92% 0.25 mm
05:40 13.7 °C 12.4 °C 1010 hPa Calm   8 km/h 92% 0.25 mm
05:45 13.7 °C 12.4 °C 1010 hPa Calm   9.7 km/h 92% 0.25 mm
05:49 13.7 °C 12.4 °C 1010 hPa South 3.2 km/h 9.7 km/h 92% 0.25 mm
05:55 13.7 °C 12.4 °C 1010 hPa Calm   6.4 km/h 92% 0.25 mm
06:00 13.7 °C 12.4 °C 1010 hPa South 3.2 km/h 9.7 km/h 92% 0.25 mm
06:05 13.8 °C 12.3 °C 1010 hPa Calm   3.2 km/h 91% 0.25 mm
06:10 13.8 °C 12.4 °C 1010 hPa SSW 1.6 km/h 6.4 km/h 91% 0.25 mm
06:15 13.8 °C 12.4 °C 1010 hPa Calm   4.8 km/h 91% 0 mm
06:19 13.9 °C 12.4 °C 1010 hPa SSW 1.6 km/h 9.7 km/h 91% 0 mm
06:24 13.9 °C 12.4 °C 1010 hPa South 1.6 km/h 9.7 km/h 91% 0 mm
06:30 13.9 °C 12.5 °C 1010 hPa South 1.6 km/h 11.3 km/h 91% 0 mm
06:35 13.9 °C 12.5 °C 1010 hPa SSW 3.2 km/h 11.3 km/h 91% 0 mm
06:40 14 °C 12.6 °C 1010 hPa SSW 3.2 km/h 9.7 km/h 91% 0 mm
06:45 14.1 °C 12.6 °C 1010 hPa SSW 1.6 km/h 9.7 km/h 91% 0.25 mm
06:49 14.1 °C 12.6 °C 1010 hPa SSW 6.4 km/h 11.3 km/h 91% 0.51 mm
06:55 14.1 °C 12.7 °C 1010 hPa SSW 3.2 km/h 12.9 km/h 91% 0.51 mm
06:59 14.2 °C 12.7 °C 1010 hPa SW 3.2 km/h 11.3 km/h 91% 0.76 mm
07:05 14.2 °C 12.7 °C 1010 hPa SW 4.8 km/h 9.7 km/h 91% 0.76 mm
07:10 14.2 °C 12.8 °C 1010 hPa SSW 6.4 km/h 9.7 km/h 91% 1.02 mm
07:15 14.2 °C 12.8 °C 1010 hPa Calm   8 km/h 91% 1.02 mm
07:20 14.2 °C 12.7 °C 1010 hPa SSW 4.8 km/h 9.7 km/h 91% 1.52 mm
07:24 14.2 °C 12.7 °C 1010 hPa SSW 1.6 km/h 9.7 km/h 91% 1.78 mm
07:30 14.2 °C 12.8 °C 1010 hPa SSW 1.6 km/h 9.7 km/h 91% 2.29 mm
07:35 14.2 °C 12.8 °C 1010.4 hPa SSW 1.6 km/h 9.7 km/h 91% 2.54 mm
07:40 14.2 °C 12.8 °C 1010 hPa SSW 3.2 km/h 11.3 km/h 91% 3.05 mm
07:45 14.3 °C 12.8 °C 1010.4 hPa SW 1.6 km/h 4.8 km/h 91% 3.3 mm
07:50 14.3 °C 12.8 °C 1010.4 hPa Calm   8 km/h 91% 3.56 mm
07:55 14.3 °C 13 °C 1010.4 hPa SSW 1.6 km/h 11.3 km/h 92% 3.81 mm
07:59 14.3 °C 13 °C 1010.4 hPa SSW 3.2 km/h 12.9 km/h 92% 3.81 mm
08:04 14.3 °C 13 °C 1010 hPa SW 3.2 km/h 8 km/h 92% 4.06 mm
08:10 14.3 °C 13.1 °C 1010 hPa Calm   4.8 km/h 92% 4.06 mm
08:15 14.4 °C 13.1 °C 1010 hPa Calm     92% 4.57 mm
08:19 14.4 °C 13.2 °C 1009.4 hPa NE 4.8 km/h 8 km/h 92% 4.32 mm
08:25 14.4 °C 13.2 °C 1009 hPa ENE 3.2 km/h 14.5 km/h 92% 4.06 mm
08:29 14.4 °C 13.2 °C 1009.4 hPa ENE 3.2 km/h 14.5 km/h 92% 3.81 mm
08:35 14.5 °C 13.2 °C 1009.4 hPa Calm   3.2 km/h 92% 3.56 mm
08:40 14.6 °C 13.3 °C 1009.4 hPa Calm     92% 3.05 mm
08:45 14.6 °C 13.3 °C 1009.7 hPa Calm     92% 2.54 mm
08:50 14.7 °C 13.6 °C 1010 hPa SW 1.6 km/h 9.7 km/h 93% 2.03 mm
08:55 14.7 °C 13.4 °C 1010 hPa WSW 3.2 km/h 6.4 km/h 92% 1.78 mm
09:00 14.8 °C 13.7 °C 1010 hPa Calm   8 km/h 93% 1.52 mm
09:05 15 °C 13.9 °C 1010 hPa WSW 4.8 km/h 12.9 km/h 93% 1.27 mm
09:10 15.1 °C 13.8 °C 1010 hPa West 4.8 km/h 14.5 km/h 92% 1.02 mm
09:14 15.2 °C 13.9 °C 1010 hPa Calm   9.7 km/h 92% 0.51 mm
09:19 15.2 °C 13.9 °C 1010.4 hPa WSW 9.7 km/h 14.5 km/h 92% 0.25 mm
09:24 15.3 °C 13.8 °C 1010.4 hPa WSW 3.2 km/h 9.7 km/h 91% 0.25 mm
09:29 15.3 °C 13.8 °C 1010.4 hPa WSW 6.4 km/h 11.3 km/h 91% 0 mm
09:34 15.4 °C 13.9 °C 1010.4 hPa WSW 4.8 km/h 11.3 km/h 91% 0 mm
09:39 15.5 °C 14.1 °C 1010.4 hPa West 4.8 km/h 11.3 km/h 91% 0 mm
09:45 15.6 °C 13.9 °C 1010.4 hPa West 3.2 km/h 12.9 km/h 90% 0 mm
09:50 15.7 °C 14.1 °C 1010.4 hPa Calm   11.3 km/h 90% 0 mm
09:55 15.7 °C 14.1 °C 1010.4 hPa West 4.8 km/h 11.3 km/h 90% 0 mm
10:00 15.9 °C 14.3 °C 1010.4 hPa WNW 8 km/h 9.7 km/h 90% 0 mm
10:05 16.1 °C 14.4 °C 1010.4 hPa West 8 km/h 8 km/h 90% 0 mm
10:09 16.4 °C 14.6 °C 1010 hPa West 4.8 km/h 14.5 km/h 89% 0 mm
10:14 17.1 °C 15.3 °C 1010.4 hPa West 6.4 km/h 14.5 km/h 89% 0 mm
10:19 16.9 °C 14.8 °C 1010.4 hPa SW 8 km/h 16.1 km/h 87% 0 mm
10:25 17.2 °C 15 °C 1010.4 hPa West 9.7 km/h 11.3 km/h 87% 0 mm
10:29 17.2 °C 14.6 °C 1010.4 hPa WNW 8 km/h 11.3 km/h 85% 0 mm
10:34 17.2 °C 14.7 °C 1010.4 hPa West 3.2 km/h 14.5 km/h 85% 0 mm
10:39 17.3 °C 14.7 °C 1010.4 hPa WNW 4.8 km/h 14.5 km/h 85% 0 mm
10:44 17.2 °C 14.4 °C 1010.4 hPa West 4.8 km/h 14.5 km/h 84% 0 mm
10:50 17.3 °C 14.6 °C 1010.4 hPa West 3.2 km/h 11.3 km/h 84% 0 mm
10:55 17.3 °C 14.8 °C 1010.4 hPa Calm   12.9 km/h 85% 0 mm
11:00 17.7 °C 14.6 °C 1010.4 hPa WSW 4.8 km/h 9.7 km/h 82% 0 mm
11:05 17.8 °C 14.7 °C 1010.4 hPa SW 8 km/h 11.3 km/h 82% 0 mm
11:10 18.7 °C 15.6 °C 1010.4 hPa WNW 1.6 km/h 9.7 km/h 82% 0 mm
11:14 18.6 °C 14.7 °C 1010.4 hPa West 4.8 km/h 9.7 km/h 78% 0 mm
11:19 19.3 °C 15.2 °C 1010.4 hPa WSW 6.4 km/h 12.9 km/h 77% 0 mm
11:24 19.4 °C 14.9 °C 1010.4 hPa WSW 4.8 km/h 12.9 km/h 75% 0 mm
11:29 19.3 °C 14.2 °C 1010.4 hPa WNW 12.9 km/h 14.5 km/h 72% 0 mm
11:35 18.9 °C 14 °C 1010.4 hPa West 3.2 km/h 16.1 km/h 73% 0 mm
11:39 19.2 °C 14.3 °C 1010.4 hPa WNW 6.4 km/h 9.7 km/h 73% 0 mm
11:44 19.2 °C 14 °C 1010.4 hPa West 4.8 km/h 11.3 km/h 72% 0 mm
11:49 19.1 °C 13.9 °C 1010.4 hPa West 4.8 km/h 12.9 km/h 72% 0 mm
11:54 19.2 °C 14 °C 1010.4 hPa WSW 6.4 km/h 11.3 km/h 72% 0 mm
12:00 19.4 °C 14 °C 1010.4 hPa West 4.8 km/h 11.3 km/h 71% 0 mm
12:05 19.4 °C 14.1 °C 1010.4 hPa WSW 8 km/h 14.5 km/h 71% 0 mm
12:10 19.3 °C 13.9 °C 1010.4 hPa SW 6.4 km/h 11.3 km/h 71% 0 mm
12:14 19.3 °C 13.9 °C 1010.4 hPa West 4.8 km/h 11.3 km/h 71% 0 mm
12:19 19.7 °C 14.3 °C 1010.4 hPa West 4.8 km/h 11.3 km/h 71% 0 mm
12:24 19.6 °C 13.7 °C 1010.4 hPa West 6.4 km/h 12.9 km/h 69% 0 mm
12:30 19.7 °C 14.1 °C 1010.4 hPa West 6.4 km/h 16.1 km/h 70% 0 mm
12:35 19.3 °C 13.4 °C 1010.4 hPa West 6.4 km/h 17.7 km/h 69% 0 mm
12:40 18.9 °C 13.3 °C 1010 hPa SW 3.2 km/h 12.9 km/h 70% 0 mm
12:44 19.1 °C 13.7 °C 1010.4 hPa West 8 km/h 11.3 km/h 71% 0 mm
12:49 19.3 °C 14.1 °C 1010 hPa WNW 6.4 km/h 12.9 km/h 72% 0 mm
12:55 19.2 °C 14.1 °C 1010 hPa SSW 8 km/h 12.9 km/h 72% 0 mm
13:04 18.6 °C 14.1 °C 1010 hPa SW 8 km/h 16.1 km/h 75% 0 mm
13:09 18.4 °C 14.3 °C 1010.4 hPa SW 3.2 km/h 17.7 km/h 77% 0 mm
13:15 18.2 °C 13.7 °C 1010 hPa SW 14.5 km/h 22.5 km/h 75% 0 mm
13:20 18.2 °C 13.7 °C 1010.4 hPa SW 9.7 km/h 22.5 km/h 75% 0 mm
13:24 17.9 °C 13.8 °C 1010.4 hPa WSW 9.7 km/h 20.9 km/h 77% 0 mm
13:29 17.8 °C 14.3 °C 1010.4 hPa WSW 9.7 km/h 22.5 km/h 80% 0 mm
13:34 17.9 °C 14.8 °C 1010.4 hPa WSW 9.7 km/h 22.5 km/h 82% 0 mm
13:40 18.2 °C 14.8 °C 1010.4 hPa WSW 8 km/h 16.1 km/h 81% 0 mm
13:45 18.3 °C 14.8 °C 1010.4 hPa WSW 8 km/h 17.7 km/h 80% 0 mm
13:49 18.4 °C 14.7 °C 1010.4 hPa WSW 14.5 km/h 17.7 km/h 79% 0 mm
13:54 18.3 °C 14.6 °C 1010.4 hPa NW 8 km/h 17.7 km/h 79% 0 mm
13:59 18.6 °C 14.7 °C 1010.4 hPa SW 8 km/h 16.1 km/h 78% 0 mm
14:04 18.9 °C 14.6 °C 1010.4 hPa WSW 14.5 km/h 16.1 km/h 76% 0 mm
14:09 18.8 °C 14.5 °C 1010.4 hPa WSW 9.7 km/h 16.1 km/h 76% 0 mm
14:14 18.9 °C 14.8 °C 1010.4 hPa West 8 km/h 14.5 km/h 77% 0 mm
14:19 18.9 °C 14.4 °C 1010.4 hPa SW 6.4 km/h 16.1 km/h 75% 0 mm
14:24 18.8 °C 14.3 °C 1010.4 hPa WSW 9.7 km/h 19.3 km/h 75% 0 mm
14:29 19.1 °C 14.5 °C 1010.4 hPa WSW 9.7 km/h 24.1 km/h 75% 0 mm
14:35 19.1 °C 14.6 °C 1010.4 hPa WSW 9.7 km/h 24.1 km/h 75% 0 mm
14:40 19.1 °C 14.5 °C 1010.4 hPa WSW 11.3 km/h 19.3 km/h 75% 0 mm
14:45 19.1 °C 14.6 °C 1010.4 hPa WSW 9.7 km/h 20.9 km/h 75% 0 mm
14:49 19.4 °C 14.7 °C 1010 hPa West 9.7 km/h 20.9 km/h 74% 0 mm
14:54 19.7 °C 14.7 °C 1010 hPa West 8 km/h 24.1 km/h 73% 0 mm
14:59 19.6 °C 14.4 °C 1010 hPa WSW 11.3 km/h 20.9 km/h 72% 0 mm
15:04 19.4 °C 14.2 °C 1010 hPa WSW 16.1 km/h 33.8 km/h 72% 0 mm
15:09 19.1 °C 14.2 °C 1010 hPa WSW 19.3 km/h 25.7 km/h 73% 0 mm
15:15 18.9 °C 13.7 °C 1010 hPa SW 16.1 km/h 20.9 km/h 72% 0 mm
15:19 18.8 °C 13.2 °C 1010.4 hPa WSW 11.3 km/h 20.9 km/h 70% 0 mm
15:24 19.1 °C 13 °C 1010.4 hPa WSW 11.3 km/h 20.9 km/h 68% 0 mm
15:29 19.3 °C 12.8 °C 1010.4 hPa WSW 9.7 km/h 27.4 km/h 66% 0 mm
15:34 19.3 °C 12.6 °C 1010.4 hPa WSW 11.3 km/h 27.4 km/h 65% 0 mm
15:39 19 °C 12.5 °C 1010.4 hPa WSW 11.3 km/h 20.9 km/h 66% 0 mm
15:44 18.8 °C 12.5 °C 1010.4 hPa WSW 11.3 km/h 22.5 km/h 67% 0 mm
15:50 18.7 °C 12.7 °C 1010.4 hPa SSW 12.9 km/h 24.1 km/h 68% 0 mm
15:54 18.6 °C 13 °C 1010.4 hPa WSW 12.9 km/h 32.2 km/h 70% 0 mm
15:59 18.4 °C 13.1 °C 1010.4 hPa WSW 14.5 km/h 32.2 km/h 71% 0 mm
16:04 18.4 °C 13.2 °C 1010.7 hPa SW 9.7 km/h 27.4 km/h 72% 0 mm
16:09 18.4 °C 13.2 °C 1010.7 hPa SSW 6.4 km/h 24.1 km/h 72% 0 mm
16:14 18.8 °C 13.6 °C 1010.7 hPa SW 14.5 km/h 17.7 km/h 72% 0 mm
16:19 19.1 °C 13.7 °C 1010.7 hPa SW 20.9 km/h 25.7 km/h 71% 0 mm
16:24 18.8 °C 13.7 °C 1010.7 hPa WSW 17.7 km/h 29 km/h 72% 0 mm
16:29 19.1 °C 14.1 °C 1010.7 hPa SW 12.9 km/h 29 km/h 73% 0 mm
16:34 19.8 °C 14.4 °C 1010.4 hPa WSW 14.5 km/h 29 km/h 71% 0 mm
16:39 19.7 °C 14.6 °C 1010.4 hPa WSW 14.5 km/h 29 km/h 72% 0 mm
16:44 20.1 °C 14.6 °C 1010.4 hPa SW 20.9 km/h 25.7 km/h 71% 0 mm
16:49 19.9 °C 13.8 °C 1010.4 hPa SW 14.5 km/h 37 km/h 68% 0 mm
16:55 19.9 °C 13.8 °C 1010.4 hPa WSW 29 km/h 32.2 km/h 68% 0 mm
16:59 19.6 °C 13.8 °C 1010.4 hPa WSW 14.5 km/h 32.2 km/h 69% 0 mm
17:04 19.4 °C 13.8 °C 1010.7 hPa WSW 14.5 km/h 32.2 km/h 70% 0 mm
17:10 19.5 °C 13.9 °C 1010.7 hPa WSW 12.9 km/h 27.4 km/h 70% 0 mm
17:14 20.2 °C 14.3 °C 1010.4 hPa WSW 17.7 km/h 25.7 km/h 69% 0 mm
17:19 20.4 °C 14.1 °C 1010.7 hPa NW 17.7 km/h 25.7 km/h 67% 0 mm
17:24 20.3 °C 13.9 °C 1010.7 hPa West 17.7 km/h 30.6 km/h 67% 0 mm
17:29 20 °C 13.9 °C 1010.7 hPa West 14.5 km/h 30.6 km/h 68% 0 mm
17:34 19.7 °C 13.8 °C 1010.7 hPa West 6.4 km/h 33.8 km/h 69% 0 mm
17:39 19.5 °C 13.7 °C 1010.7 hPa WSW 9.7 km/h 25.7 km/h 69% 0 mm
17:44 19.5 °C 13.7 °C 1010.7 hPa SW 17.7 km/h 25.7 km/h 69% 0 mm
17:49 19.4 °C 13.8 °C 1010.7 hPa West 8 km/h 29 km/h 70% 0 mm
17:54 19.5 °C 14.1 °C 1010.7 hPa WSW 8 km/h 20.9 km/h 71% 0 mm
17:59 19.6 °C 14.2 °C 1010.7 hPa WSW 9.7 km/h 20.9 km/h 71% 0 mm
18:04 20.1 °C 13.9 °C 1010.7 hPa WSW 9.7 km/h 19.3 km/h 68% 0 mm
18:09 20.4 °C 13.1 °C 1010.7 hPa WSW 11.3 km/h 25.7 km/h 63% 0 mm
18:14 20.4 °C 13.2 °C 1010.7 hPa West 12.9 km/h 25.7 km/h 63% 0 mm
18:19 20.4 °C 12.9 °C 1010.7 hPa West 11.3 km/h 22.5 km/h 62% 0 mm
18:24 20.3 °C 12.8 °C 1010.7 hPa WSW 16.1 km/h 17.7 km/h 62% 0 mm
18:29 20.2 °C 12.7 °C 1011.1 hPa WSW 9.7 km/h 25.7 km/h 62% 0 mm
18:34 20 °C 12.5 °C 1010.7 hPa West 3.2 km/h 25.7 km/h 62% 0 mm
18:39 19.8 °C 12.6 °C 1011.1 hPa West 6.4 km/h 16.1 km/h 63% 0 mm
18:44 19.7 °C 12.5 °C 1011.1 hPa SW 12.9 km/h 16.1 km/h 63% 0 mm
18:49 19.7 °C 12.4 °C 1011.1 hPa West 22.5 km/h 27.4 km/h 63% 0 mm
18:54 19.7 °C 12.4 °C 1011.1 hPa West 11.3 km/h 22.5 km/h 63% 0 mm
18:59 19.6 °C 12.3 °C 1011.4 hPa WNW 11.3 km/h 24.1 km/h 63% 0 mm
19:04 19.4 °C 12.2 °C 1011.1 hPa West 12.9 km/h 27.4 km/h 63% 0 mm
19:09 19.3 °C 12.3 °C 1011.4 hPa West 11.3 km/h 27.4 km/h 64% 0 mm
19:14 19.1 °C 12.1 °C 1011.4 hPa West 9.7 km/h 22.5 km/h 64% 0 mm
19:19 19 °C 12.3 °C 1011.4 hPa West 9.7 km/h 22.5 km/h 65% 0 mm
19:24 18.8 °C 12.1 °C 1011.7 hPa WSW 8 km/h 22.5 km/h 65% 0 mm
19:29 18.7 °C 12.2 °C 1011.4 hPa West 6.4 km/h 17.7 km/h 66% 0 mm
19:34 18.6 °C 12.1 °C 1011.7 hPa West 9.7 km/h 17.7 km/h 66% 0 mm
19:39 18.6 °C 12.3 °C 1011.7 hPa West 9.7 km/h 16.1 km/h 67% 0 mm
19:44 18.4 °C 12.2 °C 1011.7 hPa West 17.7 km/h 24.1 km/h 67% 0 mm
19:49 18.3 °C 12.3 °C 1011.7 hPa West 11.3 km/h 20.9 km/h 68% 0 mm
19:54 18.3 °C 12.3 °C 1011.7 hPa WNW 3.2 km/h 20.9 km/h 68% 0 mm
19:59 18.3 °C 12.3 °C 1011.7 hPa West 8 km/h 17.7 km/h 68% 0 mm
20:04 18.3 °C 12.3 °C 1012.1 hPa West 8 km/h 17.7 km/h 68% 0 mm
20:09 18.3 °C 12.3 °C 1012.1 hPa West 6.4 km/h 16.1 km/h 68% 0 mm
20:14 18.4 °C 12.4 °C 1012.1 hPa West 4.8 km/h 14.5 km/h 68% 0 mm
20:19 18.4 °C 12.4 °C 1012.1 hPa West 6.4 km/h 17.7 km/h 68% 0 mm
20:24 18.4 °C 12.4 °C 1012.1 hPa West 11.3 km/h 17.7 km/h 68% 0 mm
20:30 18.5 °C 12.5 °C 1012.1 hPa WNW 6.4 km/h 17.7 km/h 68% 0 mm
20:34 18.5 °C 12.5 °C 1012.4 hPa SW 8 km/h 16.1 km/h 68% 0 mm
20:39 18.6 °C 12.6 °C 1012.4 hPa West 6.4 km/h 16.1 km/h 68% 0 mm
20:44 18.6 °C 12.6 °C 1012.4 hPa West 4.8 km/h 12.9 km/h 68% 0 mm
20:49 18.6 °C 12.6 °C 1012.4 hPa West 12.9 km/h 14.5 km/h 68% 0 mm
20:54 18.6 °C 12.6 °C 1012.4 hPa West 4.8 km/h 14.5 km/h 68% 0 mm
20:59 18.6 °C 12.6 °C 1012.4 hPa WNW 1.6 km/h 14.5 km/h 68% 0 mm
21:04 18.6 °C 12.6 °C 1012.4 hPa WSW 4.8 km/h 11.3 km/h 68% 0 mm
21:09 18.6 °C 12.8 °C 1012.4 hPa West 6.4 km/h 14.5 km/h 69% 0 mm
21:14 18.4 °C 12.7 °C 1012.4 hPa West 6.4 km/h 14.5 km/h 69% 0 mm
21:19 18.4 °C 12.6 °C 1012.4 hPa West 6.4 km/h 14.5 km/h 69% 0 mm
21:24 18.3 °C 12.5 °C 1012.4 hPa West 6.4 km/h 14.5 km/h 69% 0 mm
21:29 18.3 °C 12.5 °C 1012.4 hPa West 8 km/h 17.7 km/h 69% 0 mm
21:34 18.2 °C 12.6 °C 1012.4 hPa West 8 km/h 17.7 km/h 70% 0 mm
21:39 18.1 °C 12.5 °C 1012.1 hPa West 6.4 km/h 17.7 km/h 70% 0 mm
21:44 18.1 °C 12.5 °C 1012.1 hPa West 11.3 km/h 12.9 km/h 70% 0 mm
21:49 18 °C 12.4 °C 1012.1 hPa WSW 9.7 km/h 14.5 km/h 70% 0 mm
21:54 17.9 °C 12.6 °C 1012.1 hPa WSW 3.2 km/h 14.5 km/h 71% 0 mm
21:59 17.9 °C 12.6 °C 1012.1 hPa West 8 km/h 12.9 km/h 71% 0 mm
22:04 17.8 °C 12.5 °C 1012.1 hPa WSW 3.2 km/h 11.3 km/h 71% 0 mm
22:09 17.8 °C 12.4 °C 1012.4 hPa West 9.7 km/h 14.5 km/h 71% 0 mm
22:14 17.8 °C 12.4 °C 1012.4 hPa West 6.4 km/h 14.5 km/h 71% 0 mm
22:19 17.8 °C 12.4 °C 1012.4 hPa West 6.4 km/h 14.5 km/h 71% 0 mm
22:24 17.7 °C 12.6 °C 1012.4 hPa West 6.4 km/h 17.7 km/h 72% 0 mm
22:29 17.7 °C 12.6 °C 1012.4 hPa WNW 8 km/h 16.1 km/h 72% 0 mm
22:34 17.7 °C 12.6 °C 1012.4 hPa WNW 3.2 km/h 14.5 km/h 72% 0 mm
22:39 17.7 °C 12.6 °C 1012.4 hPa WSW 6.4 km/h 16.1 km/h 72% 0 mm
22:44 17.7 °C 12.6 °C 1012.4 hPa West 6.4 km/h 16.1 km/h 72% 0 mm
22:49 17.6 °C 12.4 °C 1012.4 hPa West 6.4 km/h 14.5 km/h 72% 0 mm
22:54 17.6 °C 12.5 °C 1012.4 hPa WSW 6.4 km/h 12.9 km/h 72% 0 mm
22:59 17.6 °C 12.5 °C 1012.4 hPa West 8 km/h 12.9 km/h 72% 0 mm
23:04 17.6 °C 12.5 °C 1012.1 hPa West 1.6 km/h 11.3 km/h 72% 0 mm
23:09 17.6 °C 12.7 °C 1012.1 hPa WSW 3.2 km/h 11.3 km/h 73% 0 mm
23:24 17.6 °C 12.9 °C 1012.1 hPa WSW 3.2 km/h 14.5 km/h 74% 0 mm
23:29 17.6 °C 12.9 °C 1012.1 hPa SW 3.2 km/h 11.3 km/h 74% 0 mm
23:34 17.6 °C 12.9 °C 1012.1 hPa Calm   8 km/h 74% 0 mm
23:39 17.5 °C 13 °C 1012.1 hPa SW 4.8 km/h 8 km/h 75% 0 mm
23:44 17.7 °C 13.2 °C 1012.1 hPa WSW 4.8 km/h 12.9 km/h 75% 0 mm
23:49 17.7 °C 13 °C 1012.1 hPa WSW 4.8 km/h 12.9 km/h 74% 0 mm
23:54 17.7 °C 13.2 °C 1012.1 hPa WSW 3.2 km/h 6.4 km/h 75% 0 mm
23:59 17.6 °C 13.3 °C 1012.1 hPa SW 3.2 km/h 9.7 km/h 76% 0 mm
Buffalo, New York, USA
Compliments of Weather Underground - 2.5 mb